Wind_Speed
6 6 5 4 4 4 3 2 1 1 2 2 3 3 2 2 2 2 2 2 2 2 2 2 2 3 4 4 5 6 6 6 6 7 7 8 9 9 8 9 8 8 8
7 6 6 5 4 4 4 3 2 2 2 2 3 3 3 3 3 3 3 3 3 3 3 3 3 4 4 4 5 6 7 7 7 7 8 8 9 9 9 9 9 9 9
8 7 6 6 5 4 4 3 3 3 3 3 4 4 4 4 4 4 4 3 3 3 3 4 4 4 5 5 5 6 6 7 7 7 8 8 9 9 10 10 10 10 10
10 8 7 7 6 5 4 4 3 3 3 3 4 4 4 4 4 4 4 4 4 4 4 4 5 5 6 6 6 6 6 7 7 7 7 8 8 9 9 10 11 11 11
11 10 9 7 7 6 5 5 4 4 3 4 4 4 4 4 5 5 5 5 5 5 4 4 5 5 5 6 6 6 7 7 7 7 8 8 8 8 9 9 9 10 11
11 11 10 9 8 7 7 6 5 5 4 4 4 5 5 5 5 6 6 6 6 6 5 5 5 5 6 6 7 7 7 8 8 8 8 8 8 9 9 9 9 10 11
12 12 11 10 9 9 8 7 7 7 7 6 6 5 6 6 6 6 7 7 7 7 7 6 6 6 6 7 7 7 7 8 8 8 8 8 8 8 10 10 11 10 11
11 12 11 11 10 10 10 9 9 9 9 8 8 7 7 7 7 7 8 8 8 8 8 8 7 7 6 7 7 7 8 9 9 8 9 9 9 10 10 10 11 11 11
11 12 12 11 11 11 11 10 10 10 10 10 10 9 9 8 8 8 9 8 8 8 8 9 9 8 7 8 9 9 9 9 10 10 10 10 10 11 11 11 11 11 12
11 12 12 11 11 10 10 11 11 11 11 11 11 11 11 10 10 10 10 10 10 10 10 10 10 10 10 11 11 11 11 11 11 12 12 12 12 12 12 13 14 14 15
12 12 12 12 12 12 11 11 12 12 12 12 12 12 12 12 12 12 12 12 12 11 11 12 11 12 12 13 12 13 13 13 14 15 15 15 15 15 16 16 17 17 17
12 13 13 13 13 13 13 13 13 12 13 13 13 13 13 13 14 13 14 14 13 13 14 14 14 14 15 15 15 15 15 16 17 18 18 18 18 19 19 19 20 20 20
13 13 13 13 13 14 14 14 14 14 14 14 14 15 15 15 15 15 15 15 15 15 16 16 16 17 17 18 18 18 18 19 19 20 20 21 21 21 22 23 23 23 23
12 14 14 14 14 14 14 14 14 15 15 15 15 16 16 16 16 16 16 17 17 17 17 18 18 19 19 20 20 21 21 21 21 22 23 24 24 25 25 26 27 28 28
12 12 13 14 15 15 15 15 16 16 17 17 17 17 17 18 17 17 18 18 18 19 19 20 20 21 21 21 22 23 23 24 24 24 25 26 27 28 28 29 29 30 31
11 12 12 13 14 15 16 16 16 17 17 18 18 19 19 19 20 20 19 20 20 20 21 22 23 23 23 24 24 25 26 26 26 27 28 29 30 31 31 31 32 33 34
12 12 14 14 15 16 16 17 17 18 18 19 20 20 20 21 21 21 21 21 21 22 22 23 24 24 25 25 26 27 28 29 29 30 31 32 32 33 33 34 35 36 37
11 12 13 14 14 16 17 18 19 18 19 19 20 21 20 21 21 22 21 21 21 22 23 24 25 26 26 27 28 29 30 31 31 32 33 34 35 36 36 37 38 39 40
11 13 13 13 14 16 17 18 19 19 19 19 19 20 21 22 21 22 21 22 23 24 25 26 27 28 28 29 30 31 32 33 34 35 36 37 38 38 39 40 41 41 42
12 12 13 14 15 17 18 18 18 19 19 19 19 20 22 22 22 22 23 24 25 26 27 28 28 29 30 31 32 33 34 35 36 37 37 38 39 40 42 43 43 44 45
12 13 14 15 16 17 18 18 18 19 19 20 21 21 21 22 22 23 24 25 27 28 28 29 30 30 32 33 33 35 35 36 37 38 39 40 42 43 45 46 47 47 49
13 14 15 16 16 17 18 18 19 19 20 20 21 22 23 24 24 25 26 27 28 29 30 31 31 32 33 34 35 36 37 38 39 40 42 44 46 47 48 49 50 51 52
13 13 14 15 16 17 18 19 19 19 20 20 21 22 24 25 26 27 27 28 29 29 30 32 32 33 34 35 36 37 38 39 41 42 44 45 47 48 49 50 51 52 53
16 16 16 17 18 18 19 19 20 21 21 22 22 24 24 25 26 27 27 28 29 30 30 31 32 33 35 36 37 38 39 40 42 43 45 46 47 49 50 52 53 54 55
17 17 17 18 19 19 19 20 21 22 22 22 23 24 25 26 27 28 28 28 30 30 30 31 32 33 34 36 38 39 40 41 42 43 45 46 47 48 49 51 52 54 55
18 18 18 19 19 19 20 20 21 21 22 22 24 24 25 26 26 27 28 29 30 31 31 31 32 34 36 36 37 39 40 41 42 44 45 46 47 48 48 50 52 54 55
Wind_Direction
234 231 236 241 248 249 245 239 246 253 245 246 260 258 260 269 267 268 260 253 241 241 242 236 246 248 242 235 231 231 234 244 251 256 256 258 259 257 260 264 264 264 266
227 232 234 236 240 241 237 235 238 251 251 253 259 262 269 272 272 268 266 255 252 252 257 250 252 252 244 243 241 239 239 245 254 260 261 261 259 258 260 264 264 264 265
218 224 228 227 230 232 230 234 238 249 256 257 258 263 265 264 268 272 272 265 260 257 260 255 254 252 246 246 247 245 245 248 255 260 264 264 263 262 260 262 265 262 264
217 220 220 220 223 226 232 234 236 245 255 262 266 267 266 262 265 272 272 269 267 268 266 261 260 255 249 245 244 244 247 253 259 264 269 269 268 265 263 264 265 264 265
217 216 218 220 222 225 232 235 237 246 259 264 264 265 263 266 267 268 270 270 271 273 270 267 266 260 251 248 247 248 248 252 258 265 270 268 267 266 265 266 265 264 266
215 217 221 223 224 228 234 237 239 243 253 262 264 265 262 265 266 268 268 270 269 269 269 266 266 261 255 253 254 255 253 254 257 263 265 266 268 266 266 268 269 267 268
215 220 221 223 226 229 233 238 243 244 248 255 262 262 259 263 266 268 270 267 268 265 262 258 258 261 258 257 258 257 256 258 263 264 264 265 269 272 271 270 271 271 271
219 223 222 223 228 232 236 239 243 245 248 251 255 256 257 260 263 269 269 267 266 266 259 255 259 260 257 258 258 258 261 265 266 268 267 266 268 273 276 276 274 273 272
221 224 227 228 232 236 239 242 243 246 250 251 251 253 254 258 261 264 266 266 265 264 262 260 260 255 257 261 262 262 263 267 265 266 270 271 272 276 280 279 278 277 276
226 228 230 232 235 241 244 247 249 250 252 253 252 253 254 257 260 262 261 262 263 264 263 263 262 259 263 263 266 265 266 271 268 268 271 271 273 275 277 278 277 277 276
230 230 235 237 240 245 248 251 250 250 252 254 255 256 257 258 260 260 260 262 263 265 266 264 264 265 265 266 271 269 271 273 272 271 271 274 275 275 275 276 277 277 276
237 235 241 239 242 247 249 252 252 250 252 254 257 258 258 260 262 260 259 261 263 265 266 265 265 267 269 270 273 273 273 274 273 273 272 273 275 275 274 275 276 276 276
240 239 241 239 245 247 249 251 253 252 254 256 258 259 259 260 261 262 263 262 263 264 265 266 269 270 271 272 273 273 273 273 272 272 272 273 275 276 277 277 277 276 276
244 245 243 244 245 248 251 253 253 253 256 260 261 260 258 259 261 265 264 264 264 266 267 268 269 271 272 273 275 276 277 275 274 274 273 274 274 275 276 277 277 277 276
247 244 245 246 251 252 255 254 253 255 259 261 259 258 259 259 262 266 266 264 266 267 267 269 271 271 272 275 277 274 276 275 275 276 277 275 275 276 277 277 278 277 277
253 254 253 254 255 258 258 256 257 258 260 260 261 259 260 261 262 266 267 267 267 268 269 270 271 272 273 275 276 274 275 276 277 276 277 277 276 276 277 277 277 277 277
255 254 257 261 261 261 260 258 261 262 262 262 261 262 263 264 265 266 267 267 267 269 270 273 272 272 273 275 275 275 276 278 278 277 276 276 277 278 278 278 277 276 277
260 257 260 261 261 262 261 261 264 263 263 264 263 263 264 265 267 268 268 269 270 271 273 274 274 274 275 277 277 277 278 278 278 277 278 278 279 279 280 280 280 280 278
268 264 263 262 263 264 266 267 264 261 263 264 263 264 264 266 268 268 270 272 273 274 275 276 277 276 275 276 276 277 279 279 280 279 279 280 280 280 279 280 280 280 279
271 267 266 264 267 269 271 270 267 265 266 264 264 264 265 266 269 269 272 276 277 276 277 278 278 277 277 278 278 280 281 281 281 281 281 281 282 281 280 280 280 280 279
277 273 273 272 270 271 272 271 270 268 268 268 267 266 266 267 270 271 275 277 279 279 279 278 278 277 279 281 282 283 284 284 284 283 283 282 283 283 282 281 280 280 280
281 279 276 276 273 273 272 270 270 270 271 270 270 270 269 271 272 273 275 278 280 281 281 279 279 279 281 282 283 284 285 286 286 285 284 284 284 283 283 282 282 281 280
283 283 280 280 279 279 276 273 271 271 272 271 271 272 273 275 275 276 278 280 283 284 283 282 282 283 283 283 285 285 285 286 286 286 286 286 286 285 285 285 283 282 281
283 282 280 280 282 283 280 276 273 271 272 275 276 277 277 278 279 281 282 284 286 287 286 286 285 285 284 285 285 286 287 288 287 287 288 288 288 288 287 286 285 284 284
285 284 282 282 281 282 282 278 274 272 275 276 277 278 280 281 282 282 284 286 288 288 289 289 289 289 288 287 287 288 290 290 290 290 291 291 291 290 289 288 288 288 287
284 283 283 282 282 281 281 280 276 275 276 278 280 281 281 283 282 284 286 287 289 290 290 291 291 291 291 291 291 291 292 292 293 293 293 293 292 292 292 292 292 291 291
Height
5896 5897 5898 5898 5899 5899 5899 5899 5899 5899 5900 5900 5900 5900 5900 5900 5900 5899 5899 5900 5899 5899 5899 5899 5899 5899 5899 5899 5899 5900 5900 5900 5900 5900 5900 5900 5899 5899 5899 5899 5899 5899 5898
5896 5896 5897 5897 5898 5898 5899 5899 5899 5899 5899 5899 5899 5899 5899 5899 5900 5900 5899 5899 5899 5899 5899 5899 5899 5899 5899 5899 5899 5899 5899 5899 5899 5898 5898 5898 5898 5898 5897 5897 5897 5897 5897
5894 5895 5896 5897 5897 5898 5898 5898 5898 5898 5899 5899 5899 5899 5899 5899 5899 5899 5899 5899 5898 5898 5898 5898 5898 5898 5898 5897 5897 5897 5897 5897 5897 5897 5897 5896 5896 5896 5896 5895 5895 5895 5895
5892 5894 5895 5895 5896 5897 5897 5897 5897 5898 5898 5898 5898 5898 5898 5898 5898 5898 5898 5898 5898 5897 5897 5897 5897 5896 5896 5896 5896 5896 5896 5896 5896 5895 5895 5895 5894 5894 5894 5893 5893 5893 5893
5891 5892 5893 5894 5895 5896 5896 5896 5896 5897 5897 5897 5897 5897 5897 5897 5898 5897 5897 5897 5897 5897 5896 5896 5896 5895 5895 5895 5895 5895 5895 5894 5894 5894 5894 5893 5893 5892 5892 5891 5891 5891 5891
5889 5890 5892 5893 5893 5894 5895 5895 5896 5896 5896 5896 5896 5896 5896 5896 5896 5896 5896 5896 5896 5896 5895 5895 5894 5894 5894 5894 5894 5893 5893 5893 5893 5892 5892 5892 5891 5891 5890 5890 5889 5889 5888
5886 5888 5889 5890 5892 5892 5893 5894 5894 5895 5895 5895 5895 5895 5895 5895 5895 5895 5895 5895 5895 5894 5894 5893 5893 5893 5892 5892 5892 5892 5891 5891 5891 5891 5890 5890 5889 5889 5888 5888 5887 5887 5886
5884 5886 5887 5888 5889 5890 5891 5892 5892 5893 5893 5894 5894 5894 5894 5895 5894 5894 5894 5893 5893 5893 5892 5892 5891 5891 5891 5891 5890 5890 5890 5890 5889 5889 5888 5888 5887 5887 5886 5885 5885 5884 5883
5882 5883 5884 5885 5887 5888 5889 5889 5890 5890 5891 5892 5892 5892 5893 5893 5893 5893 5892 5892 5891 5891 5891 5890 5890 5890 5889 5889 5889 5889 5888 5888 5887 5887 5886 5885 5885 5884 5884 5883 5882 5881 5881
5879 5881 5882 5883 5884 5885 5886 5887 5887 5888 5888 5889 5889 5890 5890 5891 5891 5891 5890 5890 5890 5889 5889 5889 5889 5888 5887 5887 5887 5886 5886 5885 5884 5884 5883 5883 5882 5882 5881 5880 5879 5878 5877
5877 5878 5879 5880 5881 5882 5883 5884 5884 5885 5885 5886 5887 5887 5887 5888 5888 5888 5888 5888 5887 5887 5887 5887 5886 5886 5885 5884 5884 5883 5883 5882 5881 5881 5880 5880 5879 5878 5877 5876 5875 5874 5873
5873 5875 5876 5877 5878 5879 5880 5880 5881 5882 5882 5883 5883 5884 5884 5885 5885 5885 5885 5885 5884 5884 5884 5884 5884 5883 5883 5881 5881 5880 5879 5879 5878 5877 5876 5875 5875 5874 5873 5872 5871 5870 5868
5870 5872 5873 5874 5875 5875 5876 5877 5877 5878 5879 5879 5880 5880 5880 5881 5881 5881 5881 5881 5881 5881 5881 5881 5880 5880 5879 5878 5877 5876 5875 5874 5873 5872 5871 5871 5870 5869 5868 5867 5865 5864 5863
5868 5869 5870 5871 5871 5872 5873 5873 5874 5874 5875 5875 5876 5876 5876 5876 5877 5877 5877 5877 5877 5877 5877 5877 5876 5875 5874 5873 5872 5871 5870 5869 5868 5867 5866 5865 5864 5863 5862 5860 5859 5858 5856
5864 5865 5866 5867 5868 5868 5869 5869 5870 5870 5871 5871 5871 5871 5872 5872 5872 5872 5872 5872 5872 5872 5872 5871 5871 5870 5869 5868 5867 5866 5865 5863 5862 5861 5860 5858 5857 5856 5854 5853 5852 5850 5849
5862 5862 5863 5863 5864 5864 5865 5865 5865 5866 5866 5866 5867 5867 5867 5867 5867 5867 5867 5867 5867 5867 5866 5866 5865 5864 5864 5863 5861 5860 5858 5857 5856 5854 5852 5851 5849 5848 5846 5845 5843 5842 5840
5858 5859 5859 5860 5860 5860 5860 5860 5861 5861 5861 5862 5862 5862 5862 5862 5862 5862 5862 5862 5861 5861 5860 5860 5859 5858 5857 5856 5855 5853 5852 5850 5848 5846 5845 5843 5841 5839 5838 5836 5834 5832 5830
5855 5855 5856 5856 5856 5856 5856 5856 5856 5856 5856 5857 5857 5857 5857 5857 5857 5856 5856 5856 5855 5855 5854 5853 5852 5851 5850 5849 5848 5846 5844 5842 5840 5838 5836 5834 5832 5830 5828 5826 5824 5822 5820
5852 5852 5852 5852 5852 5852 5852 5851 5851 5851 5851 5851 5851 5851 5851 5851 5851 5850 5850 5850 5849 5848 5847 5846 5845 5844 5842 5841 5839 5838 5835 5833 5831 5829 5827 5825 5822 5820 5817 5815 5813 5810 5808
5848 5848 5848 5847 5847 5847 5847 5847 5846 5846 5846 5846 5846 5846 5845 5845 5845 5844 5844 5843 5842 5841 5840 5839 5837 5836 5834 5832 5831 5829 5826 5824 5822 5819 5817 5814 5812 5809 5806 5803 5801 5798 5796
5844 5844 5844 5843 5843 5843 5842 5842 5842 5841 5841 5841 5840 5840 5840 5839 5839 5838 5838 5837 5836 5834 5833 5831 5829 5828 5826 5824 5822 5820 5817 5815 5812 5809 5806 5804 5801 5798 5794 5791 5788 5785 5782
5840 5840 5840 5839 5839 5838 5838 5837 5837 5836 5836 5835 5835 5834 5834 5833 5833 5832 5831 5830 5828 5827 5825 5823 5821 5819 5817 5815 5812 5810 5808 5805 5802 5799 5796 5792 5789 5785 5781 5778 5774 5771 5768
5837 5836 5836 5835 5834 5834 5833 5832 5831 5831 5830 5830 5829 5829 5828 5827 5826 5825 5824 5822 5820 5819 5817 5815 5813 5811 5808 5806 5803 5800 5797 5794 5791 5787 5784 5780 5776 5772 5768 5764 5760 5756 5752
5832 5832 5831 5831 5830 5829 5827 5826 5826 5825 5824 5824 5823 5822 5821 5820 5819 5818 5816 5814 5813 5811 5808 5806 5804 5801 5799 5796 5793 5790 5787 5783 5779 5775 5772 5768 5763 5758 5754 5749 5745 5741 5736
5828 5827 5826 5826 5825 5823 5822 5821 5820 5819 5819 5818 5817 5816 5815 5814 5812 5810 5809 5807 5804 5802 5800 5797 5795 5792 5789 5786 5783 5779 5775 5772 5768 5764 5759 5755 5750 5745 5739 5734 5730 5725 5720
5823 5822 5821 5820 5819 5818 5816 5815 5814 5813 5813 5812 5811 5809 5808 5806 5805 5803 5801 5799 5797 5794 5791 5789 5786 5782 5779 5776 5772 5768 5764 5760 5756 5752 5747 5742 5737 5732 5726 5720 5715 5709 5703